Regional Weather Roundup
Issued by NWS

Home | Current Version | Previous Version | Graphics & Text | Print | Product List | Glossary On
Versions: 1 2 3 4 5 6 7 8 9 10 11 12 13 14 15 16 17 18 19 20 21 22 23 24 25 26 27 28 29 30 31 32 33 34 35 36 37 38 39 40 41 42 43 44 45 46 47 48 49 50
000
ASUS45 KBOU 170207
RWRCO

WEATHER ROUNDUP FOR COLORADO
NATIONAL WEATHER SERVICE DENVER/BOULDER CO
800 PM MDT TUE SEP 16 2014

NOTE: "FAIR" INDICATES FEW OR NO CLOUDS BELOW 12000 FEET WITH NO
SIGNIFICANT WEATHER AND/OR OBSTRUCTIONS TO VISIBILITY.

COZ001>005-013-030-031-170300-
...NORTHWEST COLORADO...

CITY           SKY/WX    TMP DP  RH WIND       PRES   REMARKS
CRAIG          CLEAR     61  42  49 CALM      30.17R
HAYDEN         CLEAR     66  32  28 SW5       30.20R
MEEKER         CLEAR     67  41  38 CALM      30.19R
MOUNT WERNER   NOT AVBL
STEAMBOAT SPGS CLEAR     64  37  36 E5        30.23R
WALDEN         CLEAR     59  28  31 S3        30.32S
$$

COZ006>008-011-170300-
...WEST CENTRAL VALLEYS...

CITY           SKY/WX    TMP DP  RH WIND       PRES   REMARKS
GRAND JUNCTION CLEAR     73  47  39 CALM      30.06R
MONTROSE       CLEAR     71  45  39 CALM      30.15R
EAGLE          CLEAR     70  39  32 CALM      30.22R
RIFLE          CLEAR     69  45  41 SE6       30.12R
DELTA          CLEAR     82  36  18 W7        30.08S
NUCLA          CLEAR     73  37  27 W6        30.18R
$$

COZ017>023-064>068-170300-
...SOUTHWEST COLORADO...

CITY           SKY/WX    TMP DP  RH WIND       PRES   REMARKS
DURANGO        CLOUDY    72  45  37 S5        30.22R
CORTEZ         CLEAR     66  51  58 S5        30.16S
PAGOSA SPRINGS MOCLDY    62  40  45 CALM      30.32R
TELLURIDE      NOT AVBL
WOLF CREEK PAS CLOUDY    45  36  70 SW13      30.59S
$$

COZ009-010-012-014-032>034-037-058>063-170300-
...CENTRAL COLORADO...

CITY           SKY/WX    TMP DP  RH WIND       PRES   REMARKS
ASPEN          CLEAR     58  37  45 SW7         N/A
BUENA VISTA    MOCLDY    64  30  27 SW5       30.30R
COPPER MTN     CLEAR     54  30  40 W13       30.62S
BERTHOUD PASS  FAIR      43  41  93 NW10      30.67S
COTTONWOOD PAS CLOUDY    64  21  19 CALM      30.45R
GUNNISON       CLEAR     64  36  34 N6        30.29R
KREMMLING      CLEAR     59  30  33 CALM      30.29R
LEADVILLE      PTCLDY    52  30  43 N7        30.45R
SALIDA         CLOUDY    71  32  24 S6        30.34R
SUNLIGHT       PTCLDY    57  34  41 NW3       30.55S
WILKERSON PASS NOT AVBL
$$

COZ069>075-170300-
...SAN LUIS VALLEY/SANGRE DE CRISTO MOUNTAINS...

CITY           SKY/WX    TMP DP  RH WIND       PRES   REMARKS
ALAMOSA        PTCLDY    61  41  47 S12       30.25R
LA VETA PASS   NOT AVBL
SAGUACHE       CLOUDY    68  36  30 S5        30.28R
$$

COZ035-036-038>040-170300-
...NORTHERN COLORADO FRONT RANGE...

CITY           SKY/WX    TMP DP  RH WIND       PRES   REMARKS
DENVER INTL AP PTCLDY    67  38  34 SE12      30.11R
DMNS CITY PARK   N/A     69  40  35 SE2       30.10S
AURORA         PTCLDY    68  40  35 E9        30.14R
FRONT RANGE AP NOT AVBL
ERIE MUNI ARPT CLEAR     65  47  50 CALM      30.08S
BOULDER MUN AP CLEAR     70  45  40 SW3       30.10R
CENTENNIAL     PTCLDY    72  38  29 S8        30.14S
BROOMFIELD     NOT AVBL
FORT COLLINS   PTCLDY    75  39  27 CALM      30.08R
LONGMONT       PTCLDY    66  47  50 W6        30.11R
$$

COZ041-046-047-076>085-087-088-170300-
...PIKES PEAK/PALMER DIVIDE AND SOUTHERN FOOTHILLS...

CITY           SKY/WX    TMP DP  RH WIND       PRES   REMARKS
COLO. SPRINGS  MOCLDY    73  37  27 E8        30.19R
A. F. ACADEMY  PTCLDY    66  41  40 N3        30.21R
ELLICOTT       NOT AVBL
FALCON         MOCLDY    64  42  44 CALM      30.25R
FORT CARSON    MOCLDY    71  40  31 CALM      30.16R
LIMON          PTCLDY    67  36  31 NE8       30.13R
MONUMENT HILL  CLOUDY    64  34  32 SE6       30.24R
TRINIDAD       CLEAR     70  47  43 SW9       30.14R
$$

COZ042>045-048>051-090-091-170300-
...NORTHEAST COLORADO...

CITY           SKY/WX    TMP DP  RH WIND       PRES   REMARKS
GREELEY ARPT   PTCLDY    66  41  39 SE6       30.07R
AKRON          CLEAR     67  41  38 SE6       30.07R
BURLINGTON     CLEAR     68  46  45 NE7       30.05R
WRAY           CLEAR     68  49  49 N5        30.01R
STERLING       CLEAR     72  48  43 CALM      30.01S
HOLYOKE        CLEAR     61  54  77 E8        30.01S
FORT MORGAN    CLEAR     67  41  37 SE7       30.06S
$$

COZ086-089-092>099-170300-
...SOUTHEAST COLORADO...

CITY           SKY/WX    TMP DP  RH WIND       PRES   REMARKS
PUEBLO         PTCLDY    77  39  25 E7        30.05R
LA JUNTA       CLEAR     78  41  26 E6        30.02R
LAMAR          CLEAR     75  46  35 SE12      29.97S
SPRINGFIELD      N/A     69  58  67 S10       30.07R
$$



USA.gov is the U.S. government's official web portal to all federal, state and local government web resources and services.